Starlink 4430

operational
NORAD ID: 53485 Int'l Des: 2022-099 Owner: SPXS Country: US Constellation: starlink
LEOCIRCULARRETROGRADESSO

About Starlink 4430

Description loading...

Live Position

Loading 3D Globe...

Upcoming Passes

Altitude History

Altitude vs Time

uPlot chart will show altitude changes over time

Two-Line Element Set

1 53485U 22099W 25259.26694675 -.00000340 00000-0 -21915-4 0 9996
2 53485 97.6024 19.4526 0002969 88.2720 271.8844 15.01259147169819
Epoch: Sep 16, 2025 • Age: 8 hours

Current Status

Altitude 569.6 km
Velocity 7.58 km/s
Sub-Earth Point -14.77°S, 170.91°E
Launch Date Aug 12, 2022
Age 3 years
Type internet

Technical Details

Classification Payload
Mass 300.00 kg
Dry Mass 275.00 kg
Total Mass 300.00 kg
Length 0.20 m
Diameter 2.80 m
Span 9.00 m
Shape Box + pan
Manufacturer SPXS
Bus Type Starlink
Phase Status In Orbit
Owner/State SPXS/US

Large Constellations

Loading constellations...